WFOV (USA 332)

导读

WFOV(USA 332)是美国于2022年7月1日发射的一颗军用卫星,作为美国军事卫星体系的组成部分,承担太空侦察相关任务,依托大视场成像能力对地面目标进行持续监测,服务于美国国防安全与战略情报获取需求,目前该卫星在轨运行,是美国天基侦察网络的重要节点,进一步巩固了美国在太空军事领域的优势地位。

基本信息
目录编号:
52940
目录名称:
WFOV (USA 332)
国际标识:
2022-073A
轨道中心:
EARTH
卫星名称:
WFOV (USA 332)
卫星全名:
--
卫星状态:
在轨 (已飞行1536 天)
发射日期:
2022-07-01 UTC
国别 :
美国 (US)
星等 :
--
该卫星已列入 空间交会检测服务 Space Conjunction Data Service (SCDS) ,当前飞行风险评估等级: 无高风险
轨道信息
数据来源 国际轨道数据 AOE轨道数据
星历时间 2026-09-14T03:33:10+0800
5小时前
查看轨道信息
2026-09-13T02:00:00+0800
1天前
查看轨道信息
半长轴 42165.794km 42165.569km
偏心率 0.0002714 0.0002734
轨道倾角 3.932° 3.930°
近地点辐角 168.461° 165.217°
升交点赤经 77.345° 77.360°
平近点角 159.558° 138.457°
近地点 35776.213km 35775.903km
远地点 35799.101km 35798.961km
周期 1436.151分钟 1436.140分钟
每日圈数 1.00268 1.002688
详细信息
使用方式:
暂无
2D轨道图
3D轨道图
轨道高度分析图
轨道倾角分析图
轨道综合分析图
查看轨道综合分析图
与全量物体交会距离演化趋势
与全量物体交会风险概率演化趋势